Weather History for KOWB - February, 2013

Change the Weather History Date:

Saturday, February 23, 2013

  Actual Average Record
Temperature  
Mean Temperature 34 °F -  
Max Temperature 41 °F 51 °F 79 °F (1982)
Min Temperature 28 °F 30 °F 6 °F (1968)
Degree Days  
Heating Degree Days 30    
Moisture  
Dew Point 26 °F    
Average Humidity 71    
Maximum Humidity 85    
Minimum Humidity 52    
Precipitation  
Precipitation 0.00 in - - ()
Sea Level Pressure  
Sea Level Pressure 30.03 in    
Wind  
Wind Speed 6 mph (NW)    
Max Wind Speed 8 mph    
Max Gust Speed -    
Visibility 10 miles    
Events      
Averages and records for this station are not official NWS values.
T = Trace of Precipitation, MM = Missing Value Source: NWS Daily Summary

Daily Weather History Graph

Daily Weather History Graph

Search for Another Location

Airport or City:

Trip Planner

Search our weather history database for the weather conditions in past years. The results will help you decide how hot, cold, wet, or windy it might be!

Date:

Astronomy

Feb. 23, 2013 Rise Set
Actual Time 6:27 AM CST 5:36 PM CST
Civil Twilight 6:01 AM CST 6:03 PM CST
Nautical Twilight 5:31 AM CST 6:33 PM CST
Astronomical Twilight 5:00 AM CST 7:03 PM CST
Moon 3:47 PM CST (2/23) 4:48 AM CST (2/23)
Length of Visible Light 12h 01m
Length of Day
11h 08m
Waxing Gibbous, 95% of the Moon is Illuminated
Feb 23
Waxing Gibbous
Feb 25
Full
Mar 4
Last Quarter
Mar 11
New
Mar 19
First Quarter

Hourly Weather History & Observations

Time (CST) Temp. Windchill Dew Point Humidity Pressure Visibility Wind Dir Wind Speed Gust Speed Precip Events Conditions
12:56 AM 34.9 °F 29.0 °F 29.1 °F 79% 30.07 in 10.0 mi NW 6.9 mph - N/A   Overcast
1:56 AM 34.9 °F 29.0 °F 27.1 °F 73% 30.06 in 10.0 mi NW 6.9 mph - N/A   Overcast
2:56 AM 32.9 °F 26.7 °F 27.1 °F 79% 30.04 in 10.0 mi NW 6.9 mph - N/A   Mostly Cloudy
3:06 AM 33.8 °F 27.7 °F 28.4 °F 81% 30.04 in 10.0 mi NW 6.9 mph - N/A   Scattered Clouds
3:56 AM 31.1 °F 27.7 °F 26.1 °F 82% 30.05 in 10.0 mi NNW 3.5 mph - N/A   Clear
4:56 AM 30.0 °F 25.2 °F 25.2 °F 82% 30.06 in 10.0 mi NNW 4.6 mph - N/A   Clear
5:56 AM 28.0 °F 22.8 °F 23.0 °F 81% 30.07 in 10.0 mi NW 4.6 mph - N/A   Clear
6:56 AM 29.1 °F - 25.2 °F 85% 30.07 in 10.0 mi Calm Calm - N/A   Clear
7:56 AM 31.1 °F 27.7 °F 23.0 °F 72% 30.06 in 10.0 mi Variable 3.5 mph - N/A   Clear
8:56 AM 32.9 °F 28.5 °F 23.0 °F 67% 30.06 in 10.0 mi NW 4.6 mph - N/A   Clear
9:56 AM 36.0 °F 30.3 °F 25.2 °F 65% 30.06 in 10.0 mi West 6.9 mph - N/A   Clear
10:56 AM 36.9 °F 33.1 °F 25.2 °F 63% 30.04 in 10.0 mi NW 4.6 mph - N/A   Clear
11:56 AM 38.8 °F 33.8 °F 25.2 °F 58% 30.03 in 10.0 mi NW 6.9 mph - N/A   Clear
12:56 PM 41.9 °F 37.5 °F 26.1 °F 53% 30.02 in 10.0 mi WNW 6.9 mph - N/A   Clear
1:56 PM 41.9 °F 38.2 °F 26.1 °F 53% 29.99 in 10.0 mi NW 5.8 mph - N/A   Clear
2:56 PM 41.9 °F 38.2 °F 25.2 °F 52% 29.98 in 10.0 mi WNW 5.8 mph - N/A   Clear
3:56 PM 41.9 °F 36.9 °F 28.0 °F 58% 29.99 in 10.0 mi WNW 8.1 mph - N/A   Clear
4:56 PM 39.9 °F 34.5 °F 28.0 °F 63% 29.99 in 10.0 mi WNW 8.1 mph - N/A   Clear
5:56 PM 36.9 °F 32.2 °F 28.0 °F 70% 29.99 in 10.0 mi WNW 5.8 mph - N/A   Clear
6:56 PM 36.0 °F 31.1 °F 28.0 °F 73% 30.01 in 10.0 mi NW 5.8 mph - N/A   Clear
7:56 PM 36.0 °F 32.1 °F 27.1 °F 70% 30.02 in 10.0 mi NNW 4.6 mph - N/A   Clear
8:56 PM 34.9 °F 29.9 °F 26.1 °F 70% 30.02 in 10.0 mi NNW 5.8 mph - N/A   Clear
9:56 PM 34.9 °F 29.9 °F 28.0 °F 76% 30.03 in 10.0 mi NW 5.8 mph - N/A   Clear
10:56 PM 32.0 °F 27.5 °F 27.1 °F 82% 30.03 in 10.0 mi WNW 4.6 mph - N/A   Clear
11:56 PM 31.1 °F - 25.2 °F 79% 30.04 in 10.0 mi Calm Calm - N/A   Clear